Location: Zagreb
(45.8000°N, 16.0000°E)
Time: 16:13:16
(UTC+01:00)

Tiros 1 despin weight - Pass Details

Date: 29 January 2020
Orbit: 594 x 642 km, 48.2° (Epoch: 25 February)

Event Time Altitude Azimuth Distance (km) Brightness Sun altitude
Rises 16:50:36 0° 278° (W) 2,914 ? 0.1°
Reaches altitude 10° 16:54:41 10° 243° (WSW) 2,012 ? -0.5°
Maximum altitude 16:55:56 11° 227° (SW) 1,947 ? -0.7°
Drops below altitude 10° 16:57:12 10° 212° (SSW) 2,014 ? -0.9°
Sets 17:01:18 0° 176° (S) 2,924 ? -1.6°
